Regional Weather Roundup
Issued by NWS Charleston, SC

Current Version | Previous Version | Graphics & Text | Print | Product List | Glossary On
Versions: 1 2 3 4 5 6 7 8 9 10 11 12 13 14 15 16 17 18 19 20 21 22 23 24 25 26 27 28 29 30 31 32 33 34 35 36 37 38 39 40 41 42 43 44 45 46 47 48 49 50
000
ASUS42 KCHS 272027
RWRCHS

REGIONAL WEATHER ROUNDUP
NATIONAL WEATHER SERVICE CHARLESTON SC
400 PM EDT THU AUG 27 2015

NOTE: "FAIR" INDICATES FEW OR NO CLOUDS BELOW 12,000 FEET WITH NO
SIGNIFICANT WEATHER AND/OR OBSTRUCTIONS TO VISIBILITY.

NOT ALL STATIONS ARE QUALITY CONTROLLED BY THE NATIONAL
WEATHER SERVICE. USE DATA WITH CAUTION...ESPECIALLY
DEWPOINT OBSERVATIONS.

SCZ027-030-031-034>040-042>050-272100-
...SOUTHEAST SOUTH CAROLINA...

CITY           SKY/WX    TMP DP  RH WIND       PRES   REMARKS
N CHARLESTON   LGT RAIN  81  73  76 N3        29.97F
WATERFRONT PRK   N/A     85  73  67 SE5       29.94F HX  92
MOUNT PLEASANT FAIR      84  73  70 NW5       29.97S HX  91
JOHNS ISLAND   FAIR      84  72  65 CALM      29.97S
PINOPOLIS        N/A     82  73  74 N8        29.91F
MONCKS CORNER  FAIR      84  72  65 N5        29.98S
SUMMERVILLE    FAIR      84  73  70 N5        29.99S HX  91
BEAUFORT MCAS  CLOUDY    81  73  76 E6        29.98S
BEAUFORT ARPT  FAIR      81  77  89 NE5       29.97S
HILTON HEAD IS PTSUNNY   79  77  94 CALM      29.98S
WALTERBORO     CLOUDY    82  72  69 NE6       29.99S
ALLENDALE      MOCLDY    82  73  74 SE9       29.98R

...SOUTHERN MIDLANDS AND PEE DEE...

CITY           SKY/WX    TMP DP  RH WIND       PRES   REMARKS
GEORGETOWN     NOT AVBL
KINGSTREE      NOT AVBL
ORANGEBURG     MOSUNNY   87  69  54 NE12G21   29.98F HX  91
BARNWELL       FAIR      88  72  58 NE8       29.99R HX  94
AIKEN          FAIR      84  63  48 NE12      30.03S
MANNING        FAIR      79  68  69 NE6       29.99F
COLUMBIA       MOSUNNY   88  65  46 NE8       29.98F HX  90
SUMTER         MOSUNNY   86  68  55 NE10      29.97F
FLORENCE       PTSUNNY   83  69  62 NE14      30.00F
MYRTLE BEACH   PTSUNNY   81  72  74 N9          N/A
N MYRTLE BEACH LGT RAIN  77  74  90 NE6       29.98F

$$

GAZ063-065-086>088-099>101-113>116-118-119-134>141-150-272100-
...SOUTHEAST GEORGIA...

CITY           SKY/WX    TMP DP  RH WIND       PRES   REMARKS
SAVANNAH ARPT  CLOUDY    74  69  85 NE8       29.97F THUNDER
HUNTER AAF     CLOUDY    77  73  88 NE5       29.95R
FORT STEWART   TSTM      73  70  88 E15G25    29.94S
STATESBORO     CLOUDY    81  73  76 SE10G20   29.99R
SYLVANIA       MOCLDY    84  76  76 SE9       29.99R HX  92
CLAXTON        NOT AVBL

...CSRA...CENTRAL AND FAR SOUTHEAST GEORGIA...

CITY           SKY/WX    TMP DP  RH WIND       PRES   REMARKS
THOMSON        MOSUNNY   87  71  58 NE13      30.03S HX  93
AUGUSTA-BUSH   MOSUNNY   87  68  52 E8        29.97F HX  90
AUGUSTA-DANIEL SUNNY     87  66  49 NE10      29.99F
SWAINSBORO       N/A    N/A N/A N/A MISG        N/A
VIDALIA        SUNNY     90  64  43 CALM      29.94S HX  91
EASTMAN        FAIR      92  62  35 CALM      29.96F HX  93
HAZLEHURST     FAIR      91  63  38 NE5       29.92S HX  92
ALMA           MOSUNNY   93  64  38 VRB3      29.91F HX  94
WAYCROSS       SUNNY     93  71  48 CALM      29.90F HX 100
JESUP          FAIR      91  75  59 SE5       29.93S HX 102
BAXLEY         PTSUNNY   95  66  38 NE8       29.92R HX  98
BRUNSWICK      PTSUNNY   88  73  62 SE9       29.94F HX  96
SAINT SIMONS   PTSUNNY   85  72  65 SE7       29.94F HX  91

$$

SCZ027-028-034-036>038-045-046-048>050-GAZ119-141-272100-
...LAKE AND SUPPLEMENTAL COASTAL OBSERVATIONS...

STATION/POSITION TIME  TEMP    WIND        PRES    WAVE   SWELL
                       AIR SEA DIR/SP/G            HT/PER HT/PER/DIR
                 (UTC) (F)     (DEG/KT/KT) (MB)    (FT/S) (FT/S/D)
UPR LAKE MARION  NOT AVBL
WINYAH BAY       1945   80      60/ 12     1014.0F
LAKE MURRAY      2000   85     120/  2/  6 1014.9F
ACE BASIN NERRS  NOT AVBL
FORT PULASKI     2000          330/  7/ 10   N/A
SAPELO ISLAND    2000   89     150/  7     1014.0S

$$

ANZ835-935-AMZ111-154-330-350-352-354-370-450-454-472-272100-
...C-MAN AND BUOY OBSERVATIONS...

STATION/POSITION TIME  TEMP    WIND        PRES    WAVE   SWELL
                       AIR SEA DIR/SP/G            HT/PER HT/PER/DIR
                 (UTC) (F)     (DEG/KT/KT) (MB)    (FT/S) (FT/S/D)
BUOY 41004       1950   81 85  350/  4/  6 1014.5F   3/10   3/10
BUOY 41008       1950   82 86  150/ 14/ 16 1014.0F   4/ 5   2/ 50/10
FOLLY BEACH CMAN 2000   83     160/  2/  3 1015.2F
CAPERS NEARSHORE 1908   80     250/  4/  6 1015.3F
FRIPP NEARSHORE  1900   83     130/ 10/ 14 1014.8F


STATION/POSITION TIME  TEMP    WIND        PRES    WAVE   SWELL
                       AIR SEA DIR/SP/G            HT/PER HT/PER/DIR
                 (UTC) (F)     (DEG/KT/KT) (MB)    (FT/S) (FT/S/D)
5E ST. MARYS GA  1921      87                N/A     2/ 9
FRYING PAN BUOY  1950   80 81   50/  6/  8 1015.3F
BUOY 41025       1950   79 82   90/ 10/ 12 1016.0F   5/ 9   5/100/ 9
CAPE LOOKOUT NC  2000   78      30/ 21/ 24 1015.3F
BUOY 41002       1950   80 84  140/  8/ 10 1014.9F   3/10   3/130/10
BUOY 41010       1920   75 85  260/  2/  4 1016.2F
ST AUGUSTINE FL  2000   82 87  130/  8/  9 1014.1F


$$


USA.gov is the U.S. government's official web portal to all federal, state and local government web resources and services.